Regional Weather Roundup
Issued by NWS Charleston, WV

Current Version | Previous Version | Text Only | Print | Product List | Glossary On
Versions: 1 2 3 4 5 6 7 8 9 10 11 12 13 14 15 16 17 18 19 20 21 22 23 24 25 26 27 28
000
ASUS41 KRLX 142210
RWRRLX
West Virginia Regional Weather Roundup
National Weather Service Charleston WV
500 PM EST THU DEC 14 2017

Note: "fair" indicates few or no clouds below 12,000 feet with no
significant weather and/or obstructions to visibility.

WVZ003-142300-
Northern Panhandle of West Virginia

CITY           SKY/WX    TMP DP  RH WIND       PRES   REMARKS
WHEELING       PTCLDY    24  11  57 W5        29.99R
$$

WVZ009-142300-
Northwest West Virginia

CITY           SKY/WX    TMP DP  RH WIND       PRES   REMARKS
PARKERSBURG    CLOUDY    28  16  60 SW5       30.05R
$$

WVZ006-142300-
Western West Virginia

CITY           SKY/WX    TMP DP  RH WIND       PRES   REMARKS
HUNTINGTON     CLOUDY    33  18  53 N3        30.01S
$$

WVZ015-142300-
West Central West Virginia

CITY           SKY/WX    TMP DP  RH WIND       PRES   REMARKS
CHARLESTON     CLOUDY    32  18  56 NW6       30.00R
$$

WVZ022-031-142300-
North Central West Virginia

CITY           SKY/WX    TMP DP  RH WIND       PRES   REMARKS
CLARKSBURG     CLOUDY    29  20  69 NW3       29.99R
MORGANTOWN     FLURRIES  26  19  74 CALM      30.00R
$$

WVZ025-035-042-045-142300-
Southern West Virginia

CITY           SKY/WX    TMP DP  RH WIND       PRES   REMARKS
BECKLEY        CLOUDY    29  19  66 NW5       29.91R
LOGAN          CLOUDY    32  19  59 CALM      29.96R
BLUEFIELD      CLOUDY    30  20  66 NW7       29.90R
LEWISBURG      CLOUDY    30  20  64 NW5       29.93R
$$

WVZ047-142300-
Northern Mountains of West Virginia

CITY           SKY/WX    TMP DP  RH WIND       PRES   REMARKS
ELKINS         CLOUDY    27  19  72 NW7       29.94R
$$

WVZ052-142300-
Eastern Panhandle of West Virginia

CITY           SKY/WX    TMP DP  RH WIND       PRES   REMARKS
MARTINSBURG    PTCLDY    31  15  52 NW6       29.98R
PETERSBURG     CLOUDY    32  21  64 CALM      29.98R
$$




USA.gov is the U.S. government's official web portal to all federal, state and local government web resources and services.